weather.gov     
National Weather Service

Terminal Aerodrome Forecast
NWS Homepage
This page is being discontinued on March 12, 2014.
The same data is available at this site. Please update your bookmarks.
Thank you, and we apologize for the inconvenience.
Please send an email to SR-SRH.Webmaster@noaa.gov with any concerns.


Current Version
Previous Version:    01  02  03  04  05  06  07  08  09  10  11  12  13  14  
[Printable]
482
FTUS41 KCAR 011100
TAFCAR
TAF
KCAR 011128Z 0112/0212 02004KT P6SM BKN006
     FM011600 07005KT P6SM BKN015
     FM011800 09005KT P6SM BKN030
     FM020000 12005KT P6SM BKN020
     FM020200 12005KT P6SM BKN015
     FM020900 14004KT P6SM BKN005=


U.S. Dept. of Commerce
NOAA National Weather Service
1325 East West Highway
Silver Spring, MD 20910
E-mail: w-nws.webmaster@noaa.gov
Page last modified: May 16, 2007
NATIONAL WEATHER SERVICE: for Safety, for Work, for Fun - FOR LIFE